Location: Observatoire de l'Aigle
(47.0607°N, 71.3152°W)
Time: 17:54:19
(UTC-04:00)

Daily predictions for brighter satellites

Satellite Brightness Start Highest point End
(mag) Time Altitude Azimuth Time Altitude Azimuth Time Altitude Azimuth
Cosmos 2298 Rocket 4.1 20:54:46 10° NNW 21:00:06 73° ENE 21:05:22 10° SSE
Cosmos 1763 Rocket 3.7 20:55:09 10° S 21:00:17 53° ESE 21:05:25 10° NNE
Cosmos 304 Rocket 4.5 20:55:41 10° SW 21:00:27 61° WNW 21:05:14 10° NNE
Cosmos 1455 Rocket 3.5 20:57:52 10° N 21:02:05 45° ENE 21:06:18 10° SSE
SPOT 5 4.2 20:59:40 10° ESE 21:03:08 22° ENE 21:06:43 10° N
Terra 3.9 21:01:34 10° E 21:03:55 14° ENE 21:06:18 10° NNE
Cosmos 841 Rocket 3.9 21:01:53 10° S 21:06:48 43° ESE 21:11:46 10° NE
BREEZE-M DEB (TANK) 4.0 21:07:44 10° W 21:08:56 12° SW 21:09:54 10° SSW
deb Kosmos-1763 4.3 21:06:35 10° SSW 21:10:17 79° WNW 21:14:01 10° NNE
BREEZE-M DEB (TANK) 4.2 21:08:50 10° WSW 21:10:29 17° SSW 21:12:46 10° SSE
Cosmos 2360 Rocket 2.4 21:05:45 10° NNW 21:11:21 61° ENE 21:16:56 10° SE
USA 234 3.5 21:05:40 10° ENE 21:12:00 49° SE 21:18:20 10° SSW
USA 32 4.2 21:07:28 10° N 21:12:40 58° E 21:17:49 10° SSE
Cosmos 1980 Rocket 4.4 21:09:21 10° NW 21:13:29 21° W 21:17:38 10° SSW
Cosmos 2219 Rocket 3.7 21:09:50 10° N 21:14:22 24° NE 21:18:53 10° E
Cosmos 1975 Rocket 3.1 21:11:58 10° S 21:16:17 85° W 21:20:38 10° N
ERS-2 4.1 21:13:32 10° SSW 21:16:43 27° W 21:19:56 10° NW
NOSS 3-2 (A) 4.0 21:11:02 10° SW 21:17:00 68° NW 21:23:45 10° NE
Cosmos 1975 4.2 21:13:15 10° NNW 21:17:02 39° W 21:20:47 10° SSW
Cosmos 1666 3.8 21:13:41 10° NNW 21:17:24 44° W 21:21:05 10° SSW
Abrixas rocket 2.1 21:14:20 10° WSW 21:17:33 74° SSE 21:20:47 10° ENE
Helios 1A 4.1 21:15:01 10° SE 21:18:37 29° ENE 21:22:15 10° N
Meteor 1-19 Rocket 4.4 21:16:33 10° S 21:22:30 88° WNW 21:28:26 10° N
NOSS 3-2 (C) 3.7 21:17:40 10° SW 21:23:40 81° NW 21:30:26 10° NE
ISS -2.8 21:20:55 10° W 21:24:07 49° NNW 21:27:19 10° ENE
Tiangong 2 1.7 21:22:17 10° WSW 21:25:14 37° S 21:28:04 11° ESE
Meteor 2-9 Rocket 4.2 21:20:39 10° NNW 21:26:01 86° W 21:31:28 10° S
Cosmos 2084 3.5 21:21:54 10° SW 21:26:11 82° NW 21:30:15 10° NE
Shenzhou-11 Module 3.5 21:25:15 10° WSW 21:27:38 22° SSW 21:29:32 13° SSE
Cosmos 1544 Rocket 3.6 21:25:10 10° N 21:29:37 87° ENE 21:34:05 10° S
MetOp-A 4.2 21:24:23 10° SSE 21:29:45 90° NW 21:35:09 10° NNW
Cosmos 292 Rocket 3.8 21:26:29 10° S 21:31:10 63° ESE 21:35:53 10° NNE
Cosmos 1743 4.4 21:29:13 10° NNW 21:32:40 32° W 21:36:04 10° SSW
ERS-1 Rocket 3.1 21:27:46 10° SSE 21:32:44 66° ENE 21:37:44 10° N
SJ 16-02 1.5 21:35:22 10° NNW 21:39:48 62° ENE 21:43:26 15° SSE
Iridium 2 4.4 21:36:05 10° SSW 21:39:50 56° W 21:43:39 10° N
CENTAUR R/B 2.5 21:33:53 10° SSW 21:39:51 69° SE 21:46:47 10° NE
Helios 1B rocket 3.7 21:37:14 10° NE 21:40:35 23° E 21:42:55 15° SE
Cosmos 2333 Rocket 3.4 21:35:40 10° NNW 21:40:48 33° NE 21:45:41 11° ESE
CZ-4C R/B 3.2 21:36:33 10° NW 21:43:27 60° NE 21:50:36 13° ESE
COSMOS 2428 3.2 21:38:29 10° NNW 21:44:00 49° NE 21:48:38 14° SE
Iridium 90 4.2 21:45:20 23° SE 21:46:07 30° E 21:48:05 10° NNE
Cosmos 1356 3.3 21:42:45 10° S 21:46:12 79° E 21:49:42 10° NNE
Meteor 1-23 Rocket 4.2 21:40:56 10° S 21:46:25 63° E 21:51:56 10° NNE
Cosmos 1814 Rocket 4.4 21:41:34 10° SSW 21:46:49 70° WNW 21:52:10 10° NNE
Cosmos 1536 Rocket 3.6 21:45:18 10° S 21:49:42 69° E 21:54:10 10° NNE
SPOT 1/Viking Rocket 3.8 21:45:41 14° SSE 21:50:00 58° ENE 21:55:05 10° N
Resurs 01 Rocket 4.2 21:49:56 10° SW 21:52:51 17° W 21:55:46 10° NW
H-2A R/B 2.2 21:48:33 10° S 21:53:28 69° WSW 21:58:33 10° NNW
Cosmos 1125 Rocket 3.6 21:48:27 10° NNW 21:53:43 70° ENE 21:57:45 17° SSE
Cosmos 1833 4.2 21:48:18 10° SSW 21:54:02 80° ESE 21:59:44 10° NNE
IGS 5A 4.4 21:52:04 17° SE 21:54:48 35° ENE 21:58:37 10° N
ATLAS 3B R/B 4.3 21:49:05 10° WSW 21:55:40 39° NW 22:02:00 10° NNE
Meteor 2-4 Rocket 4.1 21:50:38 10° SSW 21:56:03 67° WNW 22:01:42 10° N
Meteor 1-29 4.4 21:53:37 10° NE 21:56:25 22° E 21:57:32 19° ESE
SL-08 RB Rocket 4.1 21:52:40 10° S 21:57:09 61° W 22:01:43 10° NNW
Nadezhda 4 Rocket 4.1 21:51:58 10° N 21:58:16 68° ENE 22:03:30 16° SSE
Aureole 2 Rocket 3.9 21:55:58 10° NW 21:58:24 24° WSW 22:00:42 10° SSW
Lacrosse 5 rocket 1.8 21:55:31 10° WNW 21:59:45 51° SW 22:02:25 20° SSE
ARGOS 4.0 21:57:14 10° S 22:02:26 48° W 22:07:41 10° NNW
Cosmos 2297 Rocket 4.1 22:02:38 10° ESE 22:03:35 11° E 22:04:43 10° E
Cosmos 1515 3.9 22:01:11 10° SSW 22:05:01 73° W 22:08:52 10° N
Cosmos 2322 Rocket 4.0 22:01:24 10° NW 22:05:52 25° WSW 22:10:17 10° SSW
Cosmos 2322 3.9 22:00:49 10° NNW 22:06:33 72° WSW 22:10:59 17° SSE
Cosmos 2227 Rocket 4.0 22:05:57 12° ESE 22:07:05 13° E 22:09:35 10° ENE
Cosmos 2237 Rocket 3.5 22:05:15 10° NNW 22:10:19 31° NE 22:14:39 13° ESE
DMSP B5D2-2 4.1 22:05:41 10° NNE 22:11:00 75° ESE 22:16:12 10° S
Cosmos 836 Rocket 4.4 22:06:15 10° S 22:11:23 68° ESE 22:16:36 10° NNE
BREEZE-M DEB 3.9 22:08:34 10° WNW 22:12:01 90° ESE 22:13:17 29° ESE
SL-16 R/B 4.3 22:11:55 10° NW 22:15:53 20° W 22:19:51 10° SW
Cosmos 1066 Rocket 4.3 22:16:43 19° SSE 22:20:29 55° E 22:25:50 10° NNE
CARTOSAT-1 3.6 22:19:05 24° SSE 22:21:35 67° ENE 22:25:54 10° N
Landsat 7 3.8 22:18:59 21° SSE 22:22:12 90° ENE 22:27:00 10° NNW
Cosmos 2026 Rocket 4.4 22:19:02 10° N 22:25:00 48° ENE 22:28:41 22° SE
BREEZE-M R/B 2.7 22:26:00 10° W 22:29:01 49° N 22:31:17 11° ENE
Cosmos 1025 Rocket 3.0 22:27:28 20° S 22:30:29 85° E 22:34:55 10° N
Cosmos 540 Rocket 3.9 22:25:50 10° SSW 22:30:57 64° WNW 22:36:08 10° NNE
Cosmos 2034 Rocket 4.4 22:30:20 10° SSW 22:36:25 62° WNW 22:42:32 10° N
Cosmos 1606 Rocket 3.7 22:32:43 10° N 22:37:08 60° E 22:39:09 30° SSE
Cosmos 2219 3.4 22:34:42 19° S 22:38:38 54° ESE 22:44:14 10° NE
Cosmos 1544 3.0 22:36:01 10° N 22:39:45 85° ENE 22:41:11 36° SSE
Meteor 1-22 Rocket 4.2 22:35:25 10° N 22:40:46 65° ENE 22:43:34 28° SSE
SPOT 5 3.5 22:37:55 18° SSW 22:40:54 45° W 22:45:22 10° NNW
Terra 1.8 22:38:20 27° SSE 22:40:58 89° WSW 22:45:46 10° NNW
Cosmos 1766 3.5 22:41:08 10° N 22:45:04 56° ENE 22:46:27 35° SE
Spot 1 4.2 22:44:11 28° S 22:46:12 63° WSW 22:50:15 10° NNW
Cosmos 2195 Rocket 4.4 22:46:50 10° N 22:53:00 86° E 22:56:37 27° S
CZ-2C R/B 3.1 22:48:08 10° NNE 22:53:36 49° E 22:56:06 30° SSE
Cosmos 1627 Rocket 4.4 22:47:23 10° N 22:53:36 83° E 22:57:06 27° SSE
Intercosmos 25 3.9 22:52:55 34° SE 22:53:48 39° E 22:57:01 10° NNE
Abrixas rocket 2.4 22:50:49 10° W 22:54:03 66° N 22:55:59 22° E
Cosmos 2360 Rocket 4.0 22:50:34 10° NW 22:54:53 23° WSW 22:58:58 11° SSW
USA 234 3.7 22:48:41 10° NE 22:55:10 65° NNW 23:01:38 10° WSW
YAOGAN 11 4.2 22:55:17 32° S 22:57:19 77° WSW 23:01:54 10° NNW
Cosmos 2219 Rocket 2.3 22:53:17 10° NNW 22:58:50 68° WSW 23:01:38 30° S
Mayak 0.9 22:57:58 10° ENE 23:00:10 14° E 23:00:22 14° E
ISS -2.2 22:57:57 10° WNW 23:01:01 35° N 23:04:04 10° ENE
Cosmos 2084 Rocket 3.7 22:57:32 10° NW 23:01:31 56° NE 23:03:01 33° ESE
Tiangong 2 2.9 22:58:51 10° WSW 23:00:16 20° SW 23:00:16 20° SW
Cosmos 1634 Rocket 4.0 22:58:16 22° S 23:02:32 89° E 23:08:55 10° N
Cosmos 1758 4.2 23:02:25 10° N 23:06:14 37° ENE 23:07:16 31° ESE
H-2A R/B 4.1 23:06:27 14° E 23:08:21 18° ENE 23:11:14 10° NNE
ADEOS Rocket 4.4 23:05:21 10° NE 23:08:54 17° E 23:10:11 16° ESE
Spot 4 3.9 23:09:03 36° SSE 23:10:59 72° ENE 23:15:49 10° N
COSMOS 2455 3.3 23:10:58 32° SSE 23:12:54 41° ESE 23:18:30 10° NE
Nimbus 7 Rocket 4.4 23:07:04 10° NNE 23:12:58 84° WNW 23:16:59 22° SSW
Helios 1B rocket 3.9 23:12:11 10° N 23:15:58 35° WNW 23:19:15 13° SW
Cosmos 1892 Rocket 3.4 23:14:30 40° S 23:16:02 88° E 23:20:24 10° N
SJ 16-02 3.8 23:15:21 10° WNW 23:17:51 15° W 23:20:20 10° SW
CZ-2C R/B 3.5 23:16:09 29° SSW 23:18:53 59° W 23:24:29 10° NNW
Cosmos 192 4.3 23:16:53 28° SSW 23:19:28 87° WNW 23:24:25 10° NNE
Cosmos 1805 3.2 23:15:41 10° N 23:19:38 84° W 23:20:32 52° S
Cosmos 1842 3.1 23:20:57 54° S 23:21:46 78° E 23:25:41 10° NNE
Cosmos 2228 3.1 23:20:11 10° NNW 23:24:27 69° W 23:25:44 43° SSW
Cosmos 2333 Rocket 2.7 23:19:47 10° NW 23:25:16 49° WSW 23:27:41 30° SSW
Cosmos 1470 3.6 23:21:50 10° N 23:25:29 37° ENE 23:26:07 34° E
Cosmos 1538 Rocket 3.9 23:24:21 37° S 23:26:21 69° ESE 23:31:36 10° NNE
SL-16 R/B 2.9 23:22:27 10° NNW 23:27:57 48° NE 23:30:55 25° ESE
COSMOS 2428 4.0 23:23:09 10° NW 23:28:00 30° WSW 23:30:38 21° SW
CENTAUR R/B 4.2 23:25:13 10° W 23:31:05 37° NNW 23:37:48 10° NE
CZ-4C R/B 3.6 23:25:18 10° NW 23:32:01 41° WSW 23:35:47 26° SSW
Cosmos 1726 Rocket 4.3 23:28:07 10° NNW 23:32:20 45° W 23:33:54 31° SW
Cosmos 1980 3.8 23:31:31 10° NNW 23:37:07 64° WSW 23:39:12 38° S
COBE Rocket 3.8 23:35:18 10° NNE 23:40:00 68° E 23:41:17 46° SSE
Cosmos 2180 Rocket 4.5 23:38:13 33° S 23:41:17 87° E 23:47:35 10° N
CZ-4C R/B 4.4 23:40:47 34° ESE 23:42:03 43° ENE 23:46:16 10° N
ERBS 2.2 23:40:47 10° NW 23:44:10 80° NE 23:44:10 80° NE
Cosmos 2297 Rocket 2.1 23:44:24 38° S 23:46:34 71° ESE 23:52:13 10° NNE
Cosmos 1953 2.2 23:43:14 10° N 23:47:15 77° E 23:47:46 64° SE
Cosmos 2058 Rocket 3.9 23:45:10 10° NNW 23:49:27 43° W 23:50:47 33° SW
Cosmos 1707 3.4 23:49:50 39° E 23:49:56 40° E 23:53:37 10° NNE
Cosmos 2227 Rocket 2.1 23:47:43 35° SSW 23:50:12 83° ESE 23:55:54 10° NNE
SL-19 R/B 4.4 23:46:26 10° NNE 23:52:37 73° ESE 23:54:58 39° S
